When you browse on this site, cookies collect data to enhance your experience and personalize the content and advertising you see.
Visit our Privacy Policy to learn more. By continuing to use the site, you agree to this use of cookies and data.

Meteo orario Kowalowka

Oggi, 14 Luglio, Martedi

Tempo Temperatura Precipitazioni Vento Pressione Umidità
00:00 +14°C° 0 mm 1 m/s 751 mm Hg 81%
01:00 +13°C° 0 mm 1 m/s 751 mm Hg 82%
02:00 +13°C° 0 mm 1 m/s 750 mm Hg 83%
03:00 +13°C° 0 mm 1 m/s 750 mm Hg 84%
04:00 +12°C° 0 mm 1 m/s 750 mm Hg 85%
05:00 +14°C° 0 mm 1 m/s 750 mm Hg 80%
06:00 +16°C° 0 mm 2 m/s 750 mm Hg 75%
07:00 +17°C° 0 mm 2 m/s 750 mm Hg 70%
08:00 +19°C° 0 mm 2 m/s 749 mm Hg 65%
09:00 +20°C° 0 mm 2 m/s 749 mm Hg 60%
10:00 +21°C° 0 mm 2 m/s 749 mm Hg 55%
11:00 +23°C° 0 mm 2 m/s 749 mm Hg 53%
12:00 +23°C° 0 mm 2 m/s 748 mm Hg 50%
13:00 +24°C° 0 mm 2 m/s 748 mm Hg 48%
14:00 +24°C° 0 mm 2 m/s 748 mm Hg 49%
15:00 +24°C° 0 mm 2 m/s 747 mm Hg 49%
16:00 +24°C° 0 mm 2 m/s 747 mm Hg 50%
17:00 +23°C° 0 mm 1 m/s 747 mm Hg 54%
18:00 +22°C° 0 mm 1 m/s 747 mm Hg 59%
19:00 +21°C° 0 mm 1 m/s 747 mm Hg 63%
20:00 +19°C° 0 mm 2 m/s 747 mm Hg 65%
21:00 +18°C° 0 mm 2 m/s 747 mm Hg 68%
22:00 +17°C° 0 mm 2 m/s 747 mm Hg 70%
23:00 +16°C° 0 mm 2 m/s 747 mm Hg 73%

Domani, 15 Luglio, Mercoledi

Tempo Temperatura Precipitazioni Vento Pressione Umidità
00:00 +16°C° 0 mm 3 m/s 746 mm Hg 77%
01:00 +14°C° 0 mm 3 m/s 746 mm Hg 80%
02:00 +14°C° 0 mm 3 m/s 746 mm Hg 81%
03:00 +14°C° 0 mm 3 m/s 746 mm Hg 82%
04:00 +14°C° 0 mm 2 m/s 746 mm Hg 83%
05:00 +16°C° 0 mm 3 m/s 746 mm Hg 78%
06:00 +17°C° 0 mm 3 m/s 746 mm Hg 74%
07:00 +19°C° 0 mm 3 m/s 746 mm Hg 70%
08:00 +20°C° 0 mm 4 m/s 746 mm Hg 64%
09:00 +22°C° 0 mm 4 m/s 745 mm Hg 57%
10:00 +23°C° 0 mm 5 m/s 745 mm Hg 51%
11:00 +25°C° 0 mm 5 m/s 745 mm Hg 50%
12:00 +26°C° 0 mm 5 m/s 745 mm Hg 49%
13:00 +26°C° 0 mm 5 m/s 744 mm Hg 47%
14:00 +26°C° 0 mm 4 m/s 744 mm Hg 49%
15:00 +26°C° 0 mm 4 m/s 744 mm Hg 51%
16:00 +26°C° 0 mm 4 m/s 744 mm Hg 53%
17:00 +24°C° 0.3 mm 3 m/s 744 mm Hg 62%
18:00 +22°C° 0.3 mm 3 m/s 744 mm Hg 70%
19:00 +20°C° 0.3 mm 2 m/s 744 mm Hg 79%
20:00 +19°C° 0.1 mm 2 m/s 744 mm Hg 81%
21:00 +19°C° 0.1 mm 1 m/s 744 mm Hg 83%
22:00 +19°C° 0.1 mm 1 m/s 744 mm Hg 85%
23:00 +19°C° 0.2 mm 1 m/s 744 mm Hg 86%

Dopodomani, 16 Luglio, Giovedi

Tempo Temperatura Precipitazioni Vento Pressione Umidità
00:00 +18°C° 0.2 mm 1 m/s 744 mm Hg 87%
01:00 +18°C° 0.2 mm 1 m/s 744 mm Hg 88%
02:00 +18°C° 0.2 mm 1 m/s 744 mm Hg 89%
03:00 +16°C° 0.2 mm 2 m/s 744 mm Hg 91%
04:00 +16°C° 0.2 mm 2 m/s 744 mm Hg 92%
05:00 +16°C° 0.1 mm 2 m/s 744 mm Hg 92%
06:00 +16°C° 0.1 mm 3 m/s 745 mm Hg 91%
07:00 +17°C° 0.1 mm 3 m/s 745 mm Hg 90%
08:00 +15°C° 0.4 mm 4 m/s 745 mm Hg 91%
09:00 +15°C° 0.4 mm 4 m/s 745 mm Hg 91%
10:00 +15°C° 0.4 mm 4 m/s 745 mm Hg 91%
11:00 +18°C° 0.2 mm 4 m/s 746 mm Hg 82%
12:00 +19°C° 0.2 mm 4 m/s 746 mm Hg 72%
13:00 +21°C° 0.2 mm 4 m/s 746 mm Hg 63%
14:00 +21°C° 0.3 mm 4 m/s 746 mm Hg 61%
15:00 +21°C° 0.3 mm 4 m/s 746 mm Hg 59%
16:00 +21°C° 0.3 mm 4 m/s 745 mm Hg 57%
17:00 +20°C° 0.1 mm 4 m/s 745 mm Hg 61%
18:00 +19°C° 0.1 mm 3 m/s 746 mm Hg 66%
19:00 +18°C° 0.1 mm 3 m/s 746 mm Hg 71%
20:00 +17°C° 0 mm 3 m/s 746 mm Hg 74%
21:00 +16°C° 0 mm 3 m/s 746 mm Hg 77%
22:00 +14°C° 0 mm 2 m/s 746 mm Hg 80%
23:00 +14°C° 0 mm 2 m/s 746 mm Hg 83%

17 Luglio, Venerdi

Tempo Temperatura Precipitazioni Vento Pressione Umidità
00:00 +13°C° 0 mm 2 m/s 746 mm Hg 86%
01:00 +13°C° 0 mm 2 m/s 746 mm Hg 89%
02:00 +12°C° 0 mm 2 m/s 746 mm Hg 91%
03:00 +11°C° 0 mm 3 m/s 746 mm Hg 93%
04:00 +11°C° 0 mm 3 m/s 746 mm Hg 95%
05:00 +12°C° 0 mm 3 m/s 747 mm Hg 90%
06:00 +14°C° 0 mm 3 m/s 747 mm Hg 86%
07:00 +16°C° 0 mm 3 m/s 747 mm Hg 81%
08:00 +17°C° 0.4 mm 3 m/s 747 mm Hg 78%
09:00 +18°C° 0.4 mm 4 m/s 747 mm Hg 74%
10:00 +19°C° 0.4 mm 4 m/s 747 mm Hg 70%
11:00 +19°C° 1.4 mm 4 m/s 747 mm Hg 71%
12:00 +20°C° 1.4 mm 4 m/s 747 mm Hg 71%
13:00 +20°C° 1.4 mm 4 m/s 746 mm Hg 72%
14:00 +20°C° 1 mm 4 m/s 746 mm Hg 72%
15:00 +20°C° 1 mm 4 m/s 746 mm Hg 73%
16:00 +20°C° 1 mm 5 m/s 746 mm Hg 73%
17:00 +19°C° 0.6 mm 4 m/s 746 mm Hg 78%
18:00 +18°C° 0.6 mm 3 m/s 746 mm Hg 82%
19:00 +17°C° 0.6 mm 3 m/s 746 mm Hg 86%
20:00 +16°C° 0.1 mm 3 m/s 746 mm Hg 89%
21:00 +14°C° 0.1 mm 3 m/s 747 mm Hg 93%
22:00 +14°C° 0.1 mm 2 m/s 747 mm Hg 96%
23:00 +14°C° 0.1 mm 2 m/s 747 mm Hg 96%

18 Luglio, Sabato

Tempo Temperatura Precipitazioni Vento Pressione Umidità
00:00 +14°C° 0.1 mm 2 m/s 747 mm Hg 97%
01:00 +13°C° 0.1 mm 2 m/s 747 mm Hg 97%
02:00 +13°C° 0 mm 2 m/s 747 mm Hg 98%
03:00 +13°C° 0 mm 2 m/s 747 mm Hg 98%
04:00 +13°C° 0 mm 2 m/s 747 mm Hg 98%
05:00 +14°C° 0 mm 2 m/s 747 mm Hg 95%
06:00 +15°C° 0 mm 2 m/s 748 mm Hg 92%
07:00 +16°C° 0 mm 2 m/s 748 mm Hg 90%
08:00 +17°C° 0 mm 2 m/s 748 mm Hg 85%
09:00 +19°C° 0 mm 2 m/s 748 mm Hg 81%
10:00 +20°C° 0 mm 2 m/s 748 mm Hg 77%
11:00 +19°C° 0.6 mm 2 m/s 748 mm Hg 79%
12:00 +19°C° 0.6 mm 2 m/s 747 mm Hg 80%
13:00 +19°C° 0.6 mm 2 m/s 747 mm Hg 82%
14:00 +19°C° 0.1 mm 2 m/s 747 mm Hg 80%
15:00 +19°C° 0.1 mm 3 m/s 747 mm Hg 78%
16:00 +20°C° 0.1 mm 3 m/s 747 mm Hg 75%
17:00 +19°C° 0 mm 3 m/s 747 mm Hg 78%
18:00 +19°C° 0 mm 2 m/s 747 mm Hg 81%
19:00 +18°C° 0 mm 2 m/s 747 mm Hg 83%
20:00 +18°C° 0.1 mm 2 m/s 747 mm Hg 85%
21:00 +17°C° 0.1 mm 2 m/s 747 mm Hg 87%
22:00 +17°C° 0.1 mm 2 m/s 747 mm Hg 89%
23:00 +17°C° 0.2 mm 2 m/s 747 mm Hg 90%

19 Luglio, Domenica

Tempo Temperatura Precipitazioni Vento Pressione Umidità
00:00 +16°C° 0.2 mm 2 m/s 747 mm Hg 91%
01:00 +16°C° 0.2 mm 3 m/s 747 mm Hg 92%
02:00 +16°C° 0.1 mm 2 m/s 747 mm Hg 93%
03:00 +16°C° 0.1 mm 2 m/s 747 mm Hg 94%
04:00 +16°C° 0.1 mm 2 m/s 746 mm Hg 95%
05:00 +16°C° 0 mm 2 m/s 746 mm Hg 93%
06:00 +17°C° 0 mm 2 m/s 746 mm Hg 91%
07:00 +18°C° 0 mm 2 m/s 746 mm Hg 89%
08:00 +19°C° 0.4 mm 2 m/s 747 mm Hg 85%
09:00 +21°C° 0.4 mm 2 m/s 747 mm Hg 81%
10:00 +23°C° 0.4 mm 2 m/s 747 mm Hg 76%
11:00 +24°C° 1.8 mm 2 m/s 747 mm Hg 75%
12:00 +24°C° 1.8 mm 2 m/s 747 mm Hg 74%
13:00 +25°C° 1.8 mm 2 m/s 746 mm Hg 73%
14:00 +25°C° 0.6 mm 2 m/s 746 mm Hg 72%
15:00 +25°C° 0.6 mm 2 m/s 746 mm Hg 71%
16:00 +25°C° 0.6 mm 2 m/s 746 mm Hg 70%
17:00 +24°C° 0.1 mm 2 m/s 746 mm Hg 74%
18:00 +24°C° 0.1 mm 2 m/s 746 mm Hg 77%
19:00 +23°C° 0.1 mm 2 m/s 746 mm Hg 81%
20:00 +21°C° 0.1 mm 2 m/s 746 mm Hg 84%
21:00 +21°C° 0.1 mm 1 m/s 746 mm Hg 86%
22:00 +20°C° 0.1 mm 1 m/s 746 mm Hg 89%
23:00 +20°C° 0 mm 1 m/s 746 mm Hg 89%
Mostrare altro